GONETS M 11 (M21)

Satellite information

Favourite Embed

Satellite Type and Status

PAYLOADIN ORBIT

Key statistics

Satellite GONETS M 11 (M21) at a glance.

Uptime

3866

Days in orbit

Revolutions

≈ 12.4

Per day

Orbit

LEO

Low Earth Orbit

Inclination

82.5

Latest

Satellite identification and parameters

Extended collection of information and parameters for GONETS M 11 (M21).

Object identification

Identified? True

Debris? False

Object name: GONETS M 11 (M21)

International designator: 2015-020A

Object number (NORAD): 40552

Object ID (CCSDS): 40552

Country: COMMONWEALTH OF INDEPENDENT STATES (CIS)

Current information (Y/N): Y

RCS size: LARGE

Orbital parameters

Period: 115.861 minutes

Inclination: 82.4877 deg

SMA: 7872.616 km

Apoapsis: 1507.1 km

Periapsis: 1481.861 km

RAAN: 174.4436 deg

Eccentricy: 0.00160294

Argument of periapsis: 142.2557 deg

Mean anomaly: 217.9651 deg

Mean motion: 12.42865649 rev/day

Mean motion (dot): 0.00000034 rev/day2

B* drag term: 0.00017688734 1/REarth

Two-line elements (TLE)

Creation date: Oct. 30, 2025, 3:32 a.m.

Reference frame: TEME

Reference center: EARTH

Epoch: Oct. 29, 2025, 10:40 p.m. UTC

TLE line 0: 0 GONETS M 11 (M21)

TLE line 1: 1 40552U 15020A 25302.94499427 .00000034 00000-0 17689-3 0 9995

TLE line 2: 2 40552 82.4877 174.4436 0016029 142.2557 217.9651 12.42865649480131

Live tracking on map

Real-time ground track for satellite GONETS M 11 (M21).

In-orbit conjunctions

There are no conjunctions computed for GONETS M 11 (M21), at the moment. Check back to stay up to date, as we update our databases every day.

Go to all conjunctions

Associated space launch

Gonets-M are an upgraded version of Gonets satellites, derived from military communications system Strela-3. Gonets-M constellation is tasked with monitoring ecological and industrial objects, providing communication and data transmission services, covering also the remote areas like the Far North region.

GONETS M 11 (M21) was lifted into orbit during the mission ‘Rokot / Briz-KM | Gonets M-21, Gonets M-22, Gonets M-23, Kosmos 2504’, on board a Rokot/Briz-KM space rocket.

The launch took place on March 31, 2015, 1:47 p.m. from 133/3 (133L).

For more information about the launch, click the button.

Launch to space Rokot / Briz-KM | Gonets M-21, Gonets M-22, Gonets M-23, Kosmos 2504
Rokot / Briz-KM | Gonets M-21, Gonets M-22, Gonets M-23, Kosmos 2504

Agency: N/A

Status: Launch Successful

Launch date: March 31, 2015, 1:47 p.m. UTC

Rocket: Rokot/Briz-KM

Launch pad: 133/3 (133L)

Location: Plesetsk Cosmodrome, Russian Federation

...

Latest news about this satellite

There are no fresh news available about this satellite. Check back as we update our databases every day.


Newsletter sign-up

Weekly statistics, charts and insights to help you stay on top of the space industry.